Kununurra, Australia

2:08 PM AWST on October 17, 2017 (GMT +0800)
Kununurra

Weather History for YPKU - September, 2013

Change the Weather History Date:

Thursday, September 19, 2013

  Actual Average Record
Temperature  
Mean Temperature 85 °F -  
Max Temperature 102 °F - - ()
Min Temperature 68 °F - - ()
Cooling Degree Days 20    
Growing Degree Days 35 (Base 50)    
Moisture  
Dew Point 60 °F    
Average Humidity 59    
Maximum Humidity 100    
Minimum Humidity 5    
Precipitation  
Precipitation 0.00 in - - ()
Sea Level Pressure  
Sea Level Pressure 29.79 in    
Wind  
Wind Speed 4 mph ()    
Max Wind Speed 12 mph    
Max Gust Speed -    
Visibility 6.2 miles    
Events      
T = Trace of Precipitation, MM = Missing Value Source: Averaged Metar Reports

Daily Weather History Graph

Daily Weather History Graph

Search for Another Location

Airport or City:

Trip Planner

Search our weather history database for the weather conditions in past years. The results will help you decide how hot, cold, wet, or windy it might be!

Date:

Astronomy

Sep. 19, 2013 Rise Set
Actual Time 5:17 AM AWST 5:20 PM AWST
Civil Twilight 4:55 AM AWST 5:42 PM AWST
Nautical Twilight 4:31 AM AWST 6:07 PM AWST
Astronomical Twilight 4:06 AM AWST 6:32 PM AWST
Moon 5:10 PM AWST (9/19) 4:44 AM AWST (9/19)
Length of Visible Light 12h 46m
Length of Day
12h 03m
Full, 100% of the Moon is Illuminated
Sep 19
Full
Sep 19
Full
Sep 27
Last Quarter
Oct 5
New
Oct 12
First Quarter

Hourly Weather History & Observations

Time (AWST) Temp. Heat Index Dew Point Humidity Pressure Visibility Wind Dir Wind Speed Gust Speed Precip Events Conditions
12:00 AM 74 °F - 71 °F 87% 29.81 in - NNW 4.6 mph - -  
12:00 AM 73.4 °F - 71.6 °F 94% 29.80 in 6.2 mi NNW 4.6 mph - N/A   Unknown
12:30 AM 73.4 °F - 69.8 °F 88% 29.80 in 6.2 mi North 3.5 mph - N/A   Unknown
1:00 AM 73.4 °F - 69.8 °F 88% 29.80 in 6.2 mi NNE 8.1 mph - N/A   Unknown
1:30 AM 71.6 °F - 68.0 °F 88% 29.80 in 6.2 mi SW 1.2 mph - N/A   Unknown
2:00 AM 70 °F - 67 °F 88% 29.79 in - Calm Calm - -  
2:00 AM 69.8 °F - 68.0 °F 94% 29.77 in 6.2 mi Calm Calm - N/A   Unknown
2:30 AM 71.6 °F - 69.8 °F 94% 29.77 in 6.2 mi South 1.2 mph - N/A   Unknown
2:50 AM 69.8 °F - 68.0 °F 94% 29.77 in 3.7 mi South 1.2 mph - N/A   Unknown
3:00 AM 70 °F - 69 °F 97% 29.78 in 5 mi South 2.3 mph - -  
3:00 AM 69.8 °F - 69.8 °F 100% 29.77 in 5.0 mi South 2.3 mph - N/A   Unknown
3:08 AM 69.8 °F - 68.0 °F 94% 29.77 in 6.2 mi Calm Calm - N/A   Unknown
3:30 AM 69.8 °F - 68.0 °F 94% 29.77 in 6.2 mi South 2.3 mph - N/A   Unknown
4:00 AM 68.0 °F - 66.2 °F 94% 29.77 in 6.2 mi Calm Calm - N/A   Unknown
4:30 AM 69.8 °F - 69.8 °F 100% 29.80 in 6.2 mi SE 4.6 mph - N/A   Unknown
4:58 AM 69.8 °F - 69.8 °F 100% 29.80 in 3.1 mi SE 2.3 mph - N/A   Unknown
5:00 AM 70 °F - 69 °F 96% 29.81 in - SE 1.2 mph - -  
5:00 AM 69.8 °F - 69.8 °F 100% 29.80 in 0.9 mi SE 1.2 mph - N/A   Unknown
5:26 AM 68.0 °F - 68.0 °F 100% 29.80 in 6.2 mi South 4.6 mph - N/A   Unknown
5:30 AM 69.8 °F - 68.0 °F 94% 29.80 in 5.6 mi SSW 4.6 mph - N/A   Unknown
6:00 AM 70 °F - 69 °F 96% 29.82 in 12 mi Calm Calm - -   Partly Cloudy
6:00 AM 69.8 °F - 69.8 °F 100% 29.83 in 5.0 mi Calm Calm - N/A   Unknown
6:08 AM 71.6 °F - 69.8 °F 94% 29.83 in 6.2 mi SSW 3.5 mph - N/A   Scattered Clouds
6:18 AM 73.4 °F - 71.6 °F 94% 29.83 in 6.2 mi SSE 4.6 mph - N/A   Mostly Cloudy
6:30 AM 77.0 °F - 71.6 °F 83% 29.83 in 6.2 mi SSE 2.3 mph - N/A   Scattered Clouds
7:00 AM 77.0 °F - 73.4 °F 89% 29.83 in 6.2 mi South 1.2 mph - N/A   Unknown
7:30 AM 80.6 °F 85.4 °F 73.4 °F 79% 29.83 in 6.2 mi NNE 3.5 mph - N/A   Unknown
8:00 AM 83 °F - 71 °F 60% 29.85 in - SSE 4.6 mph - -  
8:00 AM 82.4 °F 87.2 °F 71.6 °F 70% 29.86 in 6.2 mi SSE 4.6 mph - N/A   Unknown
8:30 AM 84.2 °F 89.6 °F 71.6 °F 66% 29.86 in 6.2 mi ENE 4.6 mph - N/A   Unknown
9:00 AM 89 °F - 65 °F 36% 29.85 in 12 mi SSE 5.8 mph - -   Partly Cloudy
9:00 AM 87.8 °F 90.4 °F 66.2 °F 49% 29.86 in 6.2 mi SSE 5.8 mph - N/A   Unknown
9:30 AM 91.4 °F 90.7 °F 59.0 °F 34% 29.86 in 6.2 mi South 9.2 mph - N/A   Unknown
10:00 AM 95.0 °F 92.7 °F 53.6 °F 25% 29.83 in 6.2 mi SE 11.5 mph - N/A   Unknown
10:30 AM 95.0 °F - 51.8 °F 23% 29.83 in 6.2 mi SE 9.2 mph - N/A   Unknown
11:00 AM 97 °F - 50 °F 12% 29.81 in - SE 11.5 mph - -  
11:00 AM 96.8 °F - 50.0 °F 20% 29.80 in 6.2 mi SE 11.5 mph - N/A   Unknown
11:30 AM 98.6 °F - 44.6 °F 16% 29.77 in 6.2 mi SE 10.4 mph - N/A   Unknown
12:00 PM 98.6 °F - 44.6 °F 16% 29.77 in 6.2 mi SE 9.2 mph - N/A   Unknown
12:30 PM 98.6 °F - 42.8 °F 15% 29.74 in 6.2 mi SE 9.2 mph - N/A   Unknown
1:00 PM 100.4 °F - 39.2 °F 12% 29.74 in 6.2 mi NE 5.8 mph - N/A   Unknown
1:30 PM 100.4 °F - 37.4 °F 11% 29.71 in 6.2 mi SE 8.1 mph - N/A   Unknown
2:00 PM 100 °F - 35 °F 5% 29.71 in - SSE 10.4 mph - -  
2:00 PM 100.4 °F - 33.8 °F 10% 29.71 in 6.2 mi SSE 10.4 mph - N/A   Unknown
2:30 PM 100.4 °F - 35.6 °F 11% 29.71 in 6.2 mi South 8.1 mph - N/A   Unknown
3:00 PM 100 °F - 34 °F 5% 29.70 in 12 mi South 6.9 mph - -   Partly Cloudy
3:00 PM 100.4 °F - 33.8 °F 10% 29.71 in 6.2 mi South 6.9 mph - N/A   Unknown
3:30 PM 100.4 °F - 35.6 °F 11% 29.71 in 6.2 mi South 8.1 mph - N/A   Unknown
4:00 PM 100.4 °F - 32.0 °F 9% 29.71 in 6.2 mi ESE 5.8 mph - N/A   Unknown
4:30 PM 98.6 °F - 32.0 °F 10% 29.71 in 6.2 mi NE 4.6 mph - N/A   Unknown
5:00 PM 95 °F - 48 °F 12% 29.73 in - South 4.6 mph - -  
5:00 PM 95.0 °F - 48.2 °F 20% 29.71 in 6.2 mi South 4.6 mph - N/A   Unknown
5:30 PM 89.6 °F - 50.0 °F 26% 29.74 in 6.2 mi Calm Calm - N/A   Unknown
6:00 PM 88 °F - 62 °F 32% 29.76 in - North 8.1 mph - -  
6:00 PM 87.8 °F 88.5 °F 62.6 °F 43% 29.74 in 6.2 mi North 8.1 mph - N/A   Unknown
6:30 PM 86.0 °F 87.3 °F 64.4 °F 48% 29.77 in 6.2 mi North 9.2 mph - N/A   Unknown
7:00 PM 82.4 °F 84.6 °F 66.2 °F 58% 29.80 in 6.2 mi North 10.4 mph - N/A   Unknown
7:30 PM 82.4 °F 83.9 °F 64.4 °F 54% 29.80 in 6.2 mi North 9.2 mph - N/A   Unknown
8:00 PM 80 °F - 66 °F 53% 29.81 in - North 9.2 mph - -  
8:00 PM 80.6 °F 82.7 °F 66.2 °F 61% 29.80 in 6.2 mi North 9.2 mph - N/A   Unknown
8:30 PM 80.6 °F 82.7 °F 66.2 °F 61% 29.83 in 6.2 mi NE 8.1 mph - N/A   Unknown
9:00 PM 79 °F - 66 °F 56% 29.82 in - NNE 10.4 mph - -  
9:00 PM 78.8 °F - 66.2 °F 65% 29.83 in 6.2 mi NNE 10.4 mph - N/A   Unknown
10:00 PM 75.2 °F - 66.2 °F 73% 29.83 in 6.2 mi NNW 2.3 mph - N/A   Unknown
10:30 PM 75.2 °F - 64.4 °F 69% 29.83 in 6.2 mi Calm Calm - N/A   Unknown
11:00 PM 74 °F - 67 °F 71% 29.82 in - Calm Calm - -  
11:00 PM 73.4 °F - 66.2 °F 78% 29.83 in 6.2 mi Calm Calm - N/A   Unknown
11:30 PM 71.6 °F - 66.2 °F 83% 29.80 in 6.2 mi North 4.6 mph - N/A   Unknown